| time (UTC) | temp F | wind direction | speed MPH | gust MPH | rain 1hr in | rain 24hr in | rain mn in | humidity % | barometer mb |
| 20260902194446 | 98 | 92 | 5.0 | 16.0 | 0.00 | 0.00 | 0.00 | 40 | 1012.9 |
| 20260902193929 | 98 | 66 | 9.0 | 16.0 | 0.00 | 0.00 | 0.00 | 41 | 1012.9 |
| 20260902193449 | 98 | 95 | 12.0 | 15.0 | 0.00 | 0.00 | 0.00 | 41 | 1013.0 |
| 20260902192932 | 97 | 97 | 8.0 | 12.0 | 0.00 | 0.00 | 0.00 | 42 | 1013.1 |
| 20260902192439 | 98 | 104 | 6.0 | 12.0 | 0.00 | 0.00 | 0.00 | 42 | 1013.3 |
| 20260902191945 | 98 | 112 | 7.0 | 13.0 | 0.00 | 0.00 | 0.00 | 41 | 1013.4 |
| 20260902191428 | 97 | 78 | 7.0 | 14.0 | 0.00 | 0.00 | 0.00 | 43 | 1013.4 |
| 20260902190933 | 97 | 104 | 9.0 | 14.0 | 0.00 | 0.00 | 0.00 | 42 | 1013.5 |
| 20260902190441 | 97 | 104 | 7.0 | 12.0 | 0.00 | 0.00 | 0.00 | 43 | 1013.5 |
| 20260902185942 | 97 | 95 | 9.0 | 12.0 | 0.00 | 0.00 | 0.00 | 43 | 1013.6 |
| 20260902185424 | 97 | 105 | 5.0 | 10.0 | 0.00 | 0.00 | 0.00 | 44 | 1013.7 |
| 20260902184939 | 97 | 86 | 5.0 | 13.0 | 0.00 | 0.00 | 0.00 | 45 | 1013.8 |
| 20260902184444 | 96 | 97 | 8.0 | 13.0 | 0.00 | 0.00 | 0.00 | 44 | 1013.7 |
| 20260902183932 | 95 | 99 | 5.0 | 7.0 | 0.00 | 0.00 | 0.00 | 45 | 1013.9 |
| 20260902183444 | 95 | 112 | 3.0 | 7.0 | 0.00 | 0.00 | 0.00 | 45 | 1014.0 |
| 20260902182926 | 95 | 95 | 1.0 | 9.0 | 0.00 | 0.00 | 0.00 | 44 | 1014.1 |
| 20260902182431 | 96 | 73 | 5.0 | 9.0 | 0.00 | 0.00 | 0.00 | 45 | 1014.2 |
| 20260902181939 | 96 | 81 | 5.0 | 11.0 | 0.00 | 0.00 | 0.00 | 46 | 1014.3 |
| 20260902181440 | 96 | 106 | 5.0 | 11.0 | 0.00 | 0.00 | 0.00 | 44 | 1014.4 |
| 20260902180925 | 95 | 72 | 5.0 | 8.0 | 0.00 | 0.00 | 0.00 | 45 | 1014.6 |
| 20260902180433 | 95 | 102 | 3.0 | 8.0 | 0.00 | 0.00 | 0.00 | 44 | 1014.6 |
| 20260902180007 | 95 | 100 | 4.0 | 10.0 | 0.00 | 0.00 | 0.00 | 45 | 1014.9 |
| 20260902175424 | 95 | 91 | 5.0 | 12.0 | 0.00 | 0.00 | 0.00 | 44 | 1014.9 |
| 20260902174936 | 95 | 71 | 7.0 | 12.0 | 0.00 | 0.00 | 0.00 | 43 | 1015.1 |
| 20260902174446 | 94 | 75 | 6.0 | 14.0 | 0.00 | 0.00 | 0.00 | 45 | 1014.9 |
| 20260902173928 | 94 | 112 | 6.0 | 14.0 | 0.00 | 0.00 | 0.00 | 46 | 1015.1 |
| 20260902173432 | 94 | 99 | 6.0 | 11.0 | 0.00 | 0.00 | 0.00 | 47 | 1015.2 |
| 20260902172942 | 93 | 104 | 2.0 | 12.0 | 0.00 | 0.00 | 0.00 | 47 | 1015.2 |
| 20260902172429 | 94 | 110 | 2.0 | 10.0 | 0.00 | 0.00 | 0.00 | 47 | 1015.2 |
| 20260902171927 | 94 | 66 | 5.0 | 11.0 | 0.00 | 0.00 | 0.00 | 49 | 1015.3 |
| 20260902171437 | 94 | 68 | 3.0 | 11.0 | 0.00 | 0.00 | 0.00 | 48 | 1015.3 |
| 20260902170928 | 93 | 114 | 4.0 | 10.0 | 0.00 | 0.00 | 0.00 | 48 | 1015.5 |
| 20260902170502 | 93 | 111 | 4.0 | 10.0 | 0.00 | 0.00 | 0.00 | 48 | 1015.5 |
| 20260902165925 | 94 | 126 | 5.0 | 9.0 | 0.00 | 0.00 | 0.00 | 48 | 1015.6 |
| 20260902165432 | 93 | 100 | 4.0 | 7.0 | 0.00 | 0.00 | 0.00 | 48 | 1015.6 |
| 20260902164939 | 93 | 111 | 1.0 | 10.0 | 0.00 | 0.00 | 0.00 | 49 | 1015.6 |
| 20260902164440 | 93 | 102 | 6.0 | 10.0 | 0.00 | 0.00 | 0.00 | 48 | 1015.8 |
| 20260902163927 | 93 | 109 | 6.0 | 10.0 | 0.00 | 0.00 | 0.00 | 48 | 1015.7 |
| 20260902163437 | 92 | 97 | 3.0 | 6.0 | 0.00 | 0.00 | 0.00 | 49 | 1015.7 |
| 20260902162942 | 92 | 103 | 5.0 | 7.0 | 0.00 | 0.00 | 0.00 | 49 | 1015.8 |
| 20260902162431 | 91 | 99 | 3.0 | 11.0 | 0.00 | 0.00 | 0.00 | 50 | 1015.8 |
| 20260902161941 | 91 | 106 | 3.0 | 11.0 | 0.00 | 0.00 | 0.00 | 50 | 1015.9 |
| 20260902161429 | 91 | 97 | 5.0 | 7.0 | 0.00 | 0.00 | 0.00 | 51 | 1015.9 |
| 20260902160931 | 91 | 104 | 5.0 | 7.0 | 0.00 | 0.00 | 0.00 | 51 | 1015.9 |
| 20260902160457 | 91 | 122 | 2.0 | 10.0 | 0.00 | 0.00 | 0.00 | 53 | 1016.0 |
| 20260902155928 | 91 | 120 | 5.0 | 10.0 | 0.00 | 0.00 | 0.00 | 52 | 1016.0 |
| 20260902155439 | 90 | 105 | 3.0 | 6.0 | 0.00 | 0.00 | 0.00 | 53 | 1016.0 |
| 20260902154928 | 90 | 118 | 2.0 | 5.0 | 0.00 | 0.00 | 0.00 | 53 | 1015.9 |
| 20260902154432 | 90 | 114 | 3.0 | 5.0 | 0.00 | 0.00 | 0.00 | 53 | 1015.9 |
| 20260902153958 | 90 | 116 | 0.0 | 7.0 | 0.00 | 0.00 | 0.00 | 55 | 1015.9 |
| 20260902153443 | 89 | 111 | 5.0 | 7.0 | 0.00 | 0.00 | 0.00 | 56 | 1015.9 |
| 20260902152945 | 88 | 117 | 2.0 | 6.0 | 0.00 | 0.00 | 0.00 | 56 | 1015.9 |
| 20260902152451 | 89 | 120 | 3.0 | 5.0 | 0.00 | 0.00 | 0.00 | 57 | 1015.8 |
| 20260902151937 | 88 | 128 | 2.0 | 5.0 | 0.00 | 0.00 | 0.00 | 57 | 1015.9 |
| 20260902151443 | 88 | 129 | 3.0 | 5.0 | 0.00 | 0.00 | 0.00 | 58 | 1015.9 |
| 20260902150949 | 88 | 118 | 2.0 | 4.0 | 0.00 | 0.00 | 0.00 | 58 | 1015.8 |
| 20260902150434 | 87 | 118 | 2.0 | 6.0 | 0.00 | 0.00 | 0.00 | 59 | 1015.8 |
| 20260902145941 | 87 | 119 | 3.0 | 6.0 | 0.00 | 0.00 | 0.00 | 58 | 1015.8 |
| 20260902145442 | 87 | 111 | 4.0 | 6.0 | 0.00 | 0.00 | 0.00 | 60 | 1015.8 |
| 20260902144946 | 86 | 112 | 2.0 | 6.0 | 0.00 | 0.00 | 0.00 | 60 | 1015.8 |
| 20260902144450 | 86 | 108 | 4.0 | 7.0 | 0.00 | 0.00 | 0.00 | 60 | 1015.8 |
| 20260902143930 | 86 | 115 | 5.0 | 6.0 | 0.00 | 0.00 | 0.00 | 61 | 1015.8 |
| 20260902143433 | 85 | 110 | 4.0 | 6.0 | 0.00 | 0.00 | 0.00 | 61 | 1015.9 |
| 20260902143001 | 85 | 114 | 3.0 | 8.0 | 0.00 | 0.00 | 0.00 | 62 | 1015.9 |
| 20260902142438 | 85 | 113 | 4.0 | 8.0 | 0.00 | 0.00 | 0.00 | 63 | 1016.0 |
| 20260902141928 | 84 | 117 | 3.0 | 9.0 | 0.00 | 0.00 | 0.00 | 64 | 1015.9 |
| 20260902141432 | 84 | 106 | 5.0 | 9.0 | 0.00 | 0.00 | 0.00 | 64 | 1015.9 |
| 20260902141003 | 84 | 131 | 4.0 | 8.0 | 0.00 | 0.00 | 0.00 | 64 | 1015.9 |
| 20260902140428 | 84 | 128 | 4.0 | 7.0 | 0.00 | 0.00 | 0.00 | 65 | 1015.8 |
| 20260902135933 | 83 | 120 | 5.0 | 7.0 | 0.00 | 0.00 | 0.00 | 65 | 1015.9 |
| 20260902135440 | 83 | 118 | 4.0 | 7.0 | 0.00 | 0.00 | 0.00 | 66 | 1015.9 |
| 20260902134939 | 83 | 134 | 4.0 | 7.0 | 0.00 | 0.00 | 0.00 | 66 | 1015.9 |
| 20260902134447 | 82 | 131 | 4.0 | 7.0 | 0.00 | 0.00 | 0.00 | 66 | 1015.8 |
| 20260902133931 | 82 | 131 | 3.0 | 6.0 | 0.00 | 0.00 | 0.00 | 66 | 1015.8 |
| 20260902133440 | 82 | 127 | 3.0 | 6.0 | 0.00 | 0.00 | 0.00 | 67 | 1015.7 |
| 20260902132929 | 82 | 118 | 2.0 | 6.0 | 0.00 | 0.00 | 0.00 | 67 | 1015.8 |
| 20260902132435 | 82 | 118 | 2.0 | 6.0 | 0.00 | 0.00 | 0.00 | 67 | 1015.8 |
| 20260902131938 | 82 | 116 | 4.0 | 6.0 | 0.00 | 0.00 | 0.00 | 67 | 1015.7 |
| 20260902131424 | 81 | 116 | 3.0 | 6.0 | 0.00 | 0.00 | 0.00 | 68 | 1015.7 |
| 20260902130929 | 81 | 122 | 2.0 | 5.0 | 0.00 | 0.00 | 0.00 | 69 | 1015.7 |
| 20260902130434 | 81 | 124 | 3.0 | 5.0 | 0.00 | 0.00 | 0.00 | 69 | 1015.7 |
| 20260902125942 | 81 | 126 | 2.0 | 5.0 | 0.00 | 0.00 | 0.00 | 69 | 1015.5 |
| 20260902125431 | 81 | 126 | 3.0 | 5.0 | 0.00 | 0.00 | 0.00 | 69 | 1015.6 |
| 20260902125005 | 81 | 122 | 2.0 | 4.0 | 0.00 | 0.00 | 0.00 | 69 | 1015.6 |
| 20260902124431 | 80 | 122 | 2.0 | 4.0 | 0.00 | 0.00 | 0.00 | 70 | 1015.5 |
| 20260902123937 | 80 | 122 | 2.0 | 5.0 | 0.00 | 0.00 | 0.00 | 70 | 1015.5 |
| 20260902123430 | 80 | 122 | 1.0 | 5.0 | 0.00 | 0.00 | 0.00 | 69 | 1015.3 |
| 20260902122930 | 80 | 120 | 2.0 | 6.0 | 0.00 | 0.00 | 0.00 | 69 | 1015.2 |
| 20260902122438 | 80 | 121 | 3.0 | 6.0 | 0.00 | 0.00 | 0.00 | 69 | 1015.1 |
| 20260902121946 | 80 | 122 | 2.0 | 4.0 | 0.00 | 0.00 | 0.00 | 69 | 1015.0 |
| 20260902121428 | 80 | 122 | 2.0 | 6.0 | 0.00 | 0.00 | 0.00 | 69 | 1014.9 |
| 20260902121006 | 80 | 122 | 3.0 | 6.0 | 0.00 | 0.00 | 0.00 | 69 | 1014.9 |
| 20260902120429 | 80 | 121 | 3.0 | 4.0 | 0.00 | 0.00 | 0.00 | 69 | 1015.0 |
| 20260902115940 | 80 | 122 | 2.0 | 4.0 | 0.00 | 0.00 | 0.00 | 69 | 1014.9 |
| 20260902115444 | 80 | 121 | 2.0 | 5.0 | 0.00 | 0.00 | 0.00 | 68 | 1015.0 |
| 20260902114932 | 80 | 122 | 2.0 | 5.0 | 0.00 | 0.00 | 0.00 | 68 | 1015.0 |
| 20260902114508 | 80 | 120 | 3.0 | 6.0 | 0.00 | 0.00 | 0.00 | 68 | 1014.9 |
| 20260902113946 | 80 | 121 | 4.0 | 7.0 | 0.00 | 0.00 | 0.00 | 68 | 1015.0 |
| 20260902113432 | 80 | 118 | 3.0 | 7.0 | 0.00 | 0.00 | 0.00 | 68 | 1015.0 |
| 20260902112940 | 80 | 118 | 2.0 | 7.0 | 0.00 | 0.00 | 0.00 | 68 | 1015.0 |
| 20260902112429 | 81 | 118 | 3.0 | 7.0 | 0.00 | 0.00 | 0.00 | 68 | 1015.0 |
| 20260902111951 | 81 | 117 | 4.0 | 7.0 | 0.00 | 0.00 | 0.00 | 68 | 1015.1 |
| 20260902111433 | 81 | 121 | 3.0 | 9.0 | 0.00 | 0.00 | 0.00 | 68 | 1015.1 |
| 20260902110940 | 81 | 117 | 5.0 | 9.0 | 0.00 | 0.00 | 0.00 | 68 | 1015.0 |
| 20260902110451 | 81 | 126 | 3.0 | 5.0 | 0.00 | 0.00 | 0.00 | 68 | 1015.0 |
| 20260902110000 | 81 | 129 | 3.0 | 5.0 | 0.00 | 0.00 | 0.00 | 68 | 1015.0 |
| 20260902105427 | 81 | 131 | 2.0 | 5.0 | 0.00 | 0.00 | 0.00 | 67 | 1015.0 |
| 20260902104935 | 81 | 130 | 3.0 | 5.0 | 0.00 | 0.00 | 0.00 | 67 | 1015.0 |
| 20260902104442 | 81 | 133 | 3.0 | 5.0 | 0.00 | 0.00 | 0.00 | 67 | 1015.0 |
| 20260902103929 | 81 | 162 | 2.0 | 5.0 | 0.00 | 0.00 | 0.00 | 67 | 1014.9 |
| 20260902103435 | 81 | 181 | 3.0 | 4.0 | 0.00 | 0.00 | 0.00 | 67 | 1014.9 |
| 20260902102942 | 81 | 153 | 2.0 | 4.0 | 0.00 | 0.00 | 0.00 | 67 | 1014.9 |
| 20260902102454 | 81 | 186 | 2.0 | 4.0 | 0.00 | 0.00 | 0.00 | 67 | 1014.9 |
| 20260902101944 | 81 | 191 | 2.0 | 3.0 | 0.00 | 0.00 | 0.00 | 67 | 1014.9 |
| 20260902101432 | 81 | 191 | 1.0 | 2.0 | 0.00 | 0.00 | 0.00 | 67 | 1014.9 |
| 20260902100932 | 81 | 191 | 1.0 | 2.0 | 0.00 | 0.00 | 0.00 | 67 | 1014.9 |
| 20260902100444 | 81 | 191 | 0.0 | 1.0 | 0.00 | 0.00 | 0.00 | 66 | 1014.9 |
| 20260902095930 | 82 | 191 | 0.0 | 1.0 | 0.00 | 0.00 | 0.00 | 66 | 1014.8 |
| 20260902095435 | 82 | 191 | 0.0 | 0.0 | 0.00 | 0.00 | 0.00 | 67 | 1014.8 |
| 20260902094940 | 82 | 191 | 0.0 | 2.0 | 0.00 | 0.00 | 0.00 | 66 | 1014.7 |
| 20260902094427 | 82 | 191 | 0.0 | 3.0 | 0.00 | 0.00 | 0.00 | 65 | 1014.9 |
| 20260902093940 | 82 | 191 | 1.0 | 4.0 | 0.00 | 0.00 | 0.00 | 65 | 1014.9 |
| 20260902093440 | 82 | 191 | 1.0 | 5.0 | 0.00 | 0.00 | 0.00 | 64 | 1014.8 |
| 20260902092942 | 82 | 191 | 2.0 | 5.0 | 0.00 | 0.00 | 0.00 | 65 | 1014.9 |
| 20260902092427 | 82 | 195 | 1.0 | 4.0 | 0.00 | 0.00 | 0.00 | 65 | 1014.9 |
| 20260902091935 | 83 | 196 | 1.0 | 4.0 | 0.00 | 0.00 | 0.00 | 64 | 1015.0 |
| 20260902091440 | 83 | 196 | 2.0 | 6.0 | 0.00 | 0.00 | 0.00 | 64 | 1014.9 |
| 20260902090926 | 83 | 201 | 3.0 | 7.0 | 0.00 | 0.00 | 0.00 | 64 | 1015.0 |
| 20260902090456 | 83 | 201 | 2.0 | 7.0 | 0.00 | 0.00 | 0.00 | 64 | 1014.9 |
| 20260902085957 | 83 | 190 | 4.0 | 6.0 | 0.00 | 0.00 | 0.00 | 64 | 1015.0 |
| 20260902085438 | 83 | 185 | 3.0 | 8.0 | 0.00 | 0.00 | 0.00 | 65 | 1014.9 |
| 20260902084945 | 83 | 194 | 3.0 | 8.0 | 0.00 | 0.00 | 0.00 | 64 | 1015.0 |
| 20260902084452 | 83 | 153 | 2.0 | 6.0 | 0.00 | 0.00 | 0.00 | 65 | 1015.0 |
| 20260902084000 | 83 | 148 | 2.0 | 6.0 | 0.00 | 0.00 | 0.00 | 64 | 1015.0 |
| 20260902083440 | 83 | 141 | 4.0 | 8.0 | 0.00 | 0.00 | 0.00 | 65 | 1014.9 |
| 20260902082949 | 83 | 167 | 4.0 | 8.0 | 0.00 | 0.00 | 0.00 | 65 | 1014.9 |
| 20260902082438 | 83 | 169 | 2.0 | 7.0 | 0.00 | 0.00 | 0.00 | 64 | 1014.9 |
| 20260902081943 | 83 | 171 | 4.0 | 7.0 | 0.00 | 0.00 | 0.00 | 64 | 1014.9 |
| 20260902081429 | 83 | 172 | 4.0 | 9.0 | 0.00 | 0.00 | 0.00 | 63 | 1014.9 |
| 20260902080957 | 84 | 204 | 3.0 | 9.0 | 0.00 | 0.00 | 0.00 | 63 | 1014.9 |
| 20260902080437 | 84 | 179 | 5.0 | 13.0 | 0.00 | 0.00 | 0.00 | 62 | 1014.9 |
| 20260902075945 | 85 | 158 | 3.0 | 13.0 | 0.00 | 0.00 | 0.00 | 61 | 1014.9 |
| 20260902075449 | 85 | 191 | 5.0 | 10.0 | 0.00 | 0.00 | 0.00 | 60 | 1015.0 |
| 20260902074955 | 85 | 175 | 4.0 | 10.0 | 0.00 | 0.00 | 0.00 | 59 | 1015.0 |
| 20260902074442 | 85 | 193 | 3.0 | 7.0 | 0.00 | 0.00 | 0.00 | 59 | 1015.0 |
| 20260902073928 | 85 | 148 | 3.0 | 7.0 | 0.00 | 0.00 | 0.00 | 60 | 1015.0 |
| 20260902073431 | 85 | 177 | 4.0 | 6.0 | 0.00 | 0.00 | 0.00 | 59 | 1015.0 |
| 20260902072935 | 86 | 158 | 2.0 | 6.0 | 0.00 | 0.00 | 0.00 | 59 | 1015.0 |
| 20260902072427 | 86 | 148 | 4.0 | 8.0 | 0.00 | 0.00 | 0.00 | 59 | 1015.2 |
| 20260902071935 | 86 | 148 | 3.0 | 8.0 | 0.00 | 0.00 | 0.00 | 59 | 1015.2 |
| 20260902071439 | 86 | 166 | 4.0 | 7.0 | 0.00 | 0.00 | 0.00 | 59 | 1015.1 |
| 20260902070947 | 86 | 165 | 4.0 | 10.0 | 0.00 | 0.00 | 0.00 | 59 | 1015.1 |
| 20260902070438 | 86 | 177 | 4.0 | 10.0 | 0.00 | 0.00 | 0.00 | 59 | 1015.2 |
| 20260902065925 | 86 | 153 | 8.0 | 10.0 | 0.00 | 0.00 | 0.00 | 59 | 1015.1 |
| 20260902065449 | 86 | 191 | 3.0 | 9.0 | 0.00 | 0.00 | 0.00 | 59 | 1015.1 |
| 20260902064935 | 86 | 207 | 3.0 | 9.0 | 0.00 | 0.00 | 0.00 | 59 | 1015.0 |
| 20260902064440 | 86 | 153 | 2.0 | 7.0 | 0.00 | 0.00 | 0.00 | 59 | 1015.1 |
| 20260902063930 | 86 | 153 | 4.0 | 8.0 | 0.00 | 0.00 | 0.00 | 58 | 1015.0 |
| 20260902063502 | 86 | 135 | 6.0 | 8.0 | 0.00 | 0.00 | 0.00 | 58 | 1015.0 |
| 20260902062933 | 87 | 134 | 3.0 | 12.0 | 0.00 | 0.00 | 0.00 | 58 | 1014.9 |
| 20260902062436 | 87 | 173 | 4.0 | 11.0 | 0.00 | 0.00 | 0.00 | 57 | 1014.9 |
| 20260902062008 | 87 | 142 | 4.0 | 11.0 | 0.00 | 0.00 | 0.00 | 57 | 1014.8 |
| 20260902061456 | 87 | 134 | 7.0 | 12.0 | 0.00 | 0.00 | 0.00 | 57 | 1014.8 |
| 20260902061007 | 87 | 175 | 7.0 | 12.0 | 0.00 | 0.00 | 0.00 | 56 | 1014.8 |
| 20260902060434 | 87 | 148 | 7.0 | 12.0 | 0.00 | 0.00 | 0.00 | 56 | 1014.7 |
| 20260902055940 | 87 | 118 | 7.0 | 12.0 | 0.00 | 0.00 | 0.00 | 55 | 1014.6 |
| 20260902055504 | 88 | 162 | 5.0 | 9.0 | 0.00 | 0.00 | 0.00 | 55 | 1014.6 |
| 20260902054953 | 88 | 133 | 5.0 | 9.0 | 0.00 | 0.00 | 0.00 | 55 | 1014.5 |
| 20260902054440 | 88 | 125 | 6.0 | 10.0 | 0.00 | 0.00 | 0.00 | 54 | 1014.5 |
| 20260902053930 | 88 | 179 | 5.0 | 13.0 | 0.00 | 0.00 | 0.00 | 54 | 1014.4 |
| 20260902053436 | 88 | 126 | 7.0 | 13.0 | 0.00 | 0.00 | 0.00 | 53 | 1014.4 |
| 20260902052946 | 89 | 118 | 7.0 | 11.0 | 0.00 | 0.00 | 0.00 | 53 | 1014.4 |
| 20260902052429 | 89 | 166 | 7.0 | 10.0 | 0.00 | 0.00 | 0.00 | 52 | 1014.4 |
| 20260902051936 | 89 | 158 | 5.0 | 9.0 | 0.00 | 0.00 | 0.00 | 52 | 1014.2 |
| 20260902051436 | 89 | 124 | 4.0 | 10.0 | 0.00 | 0.00 | 0.00 | 52 | 1014.3 |
| 20260902050944 | 89 | 136 | 7.0 | 14.0 | 0.00 | 0.00 | 0.00 | 52 | 1014.3 |
| 20260902050432 | 89 | 122 | 8.0 | 14.0 | 0.00 | 0.00 | 0.00 | 51 | 1014.3 |
| 20260902045936 | 89 | 117 | 4.0 | 12.0 | 0.00 | 0.00 | 0.00 | 51 | 1014.3 |
| 20260902045426 | 90 | 129 | 4.0 | 13.0 | 0.00 | 0.00 | 0.00 | 51 | 1014.3 |
| 20260902044937 | 89 | 122 | 6.0 | 13.0 | 0.00 | 0.00 | 0.00 | 51 | 1014.3 |
| 20260902044448 | 90 | 117 | 0.0 | 6.0 | 0.00 | 0.00 | 0.00 | 51 | 1014.2 |
| 20260902043932 | 90 | 115 | 2.0 | 5.0 | 0.00 | 0.00 | 0.00 | 50 | 1014.2 |
| 20260902043443 | 90 | 116 | 1.0 | 4.0 | 0.00 | 0.00 | 0.00 | 50 | 1014.2 |
| 20260902042953 | 90 | 115 | 2.0 | 5.0 | 0.00 | 0.00 | 0.00 | 50 | 1014.1 |
| 20260902042435 | 90 | 116 | 3.0 | 6.0 | 0.00 | 0.00 | 0.00 | 50 | 1014.1 |
| 20260902041938 | 90 | 115 | 4.0 | 7.0 | 0.00 | 0.00 | 0.00 | 49 | 1014.0 |
| 20260902041429 | 90 | 120 | 6.0 | 7.0 | 0.00 | 0.00 | 0.00 | 49 | 1014.0 |
| 20260902040933 | 90 | 121 | 4.0 | 6.0 | 0.00 | 0.00 | 0.00 | 49 | 1013.9 |
| 20260902040455 | 91 | 127 | 3.0 | 6.0 | 0.00 | 0.00 | 0.00 | 49 | 1014.0 |
| 20260902035945 | 91 | 127 | 3.0 | 6.0 | 0.00 | 0.00 | 0.00 | 49 | 1014.1 |
| 20260902035430 | 91 | 134 | 4.0 | 6.0 | 0.00 | 0.00 | 0.00 | 48 | 1014.0 |
| 20260902034937 | 91 | 128 | 4.0 | 7.0 | 0.00 | 0.00 | 0.00 | 48 | 1014.0 |
| 20260902034443 | 91 | 120 | 5.0 | 7.0 | 0.00 | 0.00 | 0.00 | 48 | 1014.0 |
| 20260902033932 | 91 | 129 | 4.0 | 7.0 | 0.00 | 0.00 | 0.00 | 48 | 1014.1 |
| 20260902033435 | 91 | 127 | 3.0 | 7.0 | 0.00 | 0.00 | 0.00 | 48 | 1014.0 |
| 20260902032941 | 91 | 132 | 3.0 | 6.0 | 0.00 | 0.00 | 0.00 | 48 | 1013.9 |
| 20260902032427 | 91 | 122 | 3.0 | 6.0 | 0.00 | 0.00 | 0.00 | 48 | 1013.9 |
| 20260902032003 | 91 | 128 | 3.0 | 5.0 | 0.00 | 0.00 | 0.00 | 48 | 1014.0 |
| 20260902031429 | 91 | 129 | 3.0 | 5.0 | 0.00 | 0.00 | 0.00 | 47 | 1013.9 |
| 20260902030933 | 92 | 124 | 2.0 | 5.0 | 0.00 | 0.00 | 0.00 | 47 | 1013.8 |
| 20260902030442 | 92 | 127 | 3.0 | 5.0 | 0.00 | 0.00 | 0.00 | 47 | 1013.7 |
| 20260902025935 | 92 | 125 | 3.0 | 6.0 | 0.00 | 0.00 | 0.00 | 47 | 1013.7 |
| 20260902025509 | 92 | 124 | 4.0 | 7.0 | 0.00 | 0.00 | 0.00 | 47 | 1013.5 |
| 20260902024932 | 92 | 124 | 5.0 | 7.0 | 0.00 | 0.00 | 0.00 | 47 | 1013.5 |
| 20260902024435 | 92 | 120 | 3.0 | 5.0 | 0.00 | 0.00 | 0.00 | 47 | 1013.5 |
| 20260902024006 | 92 | 118 | 3.0 | 7.0 | 0.00 | 0.00 | 0.00 | 47 | 1013.4 |
| 20260902023428 | 92 | 119 | 3.0 | 7.0 | 0.00 | 0.00 | 0.00 | 46 | 1013.4 |
| 20260902022953 | 92 | 118 | 4.0 | 6.0 | 0.00 | 0.00 | 0.00 | 46 | 1013.3 |
| 20260902022438 | 92 | 126 | 4.0 | 6.0 | 0.00 | 0.00 | 0.00 | 46 | 1013.2 |
| 20260902021946 | 92 | 119 | 3.0 | 6.0 | 0.00 | 0.00 | 0.00 | 46 | 1013.1 |
| 20260902021435 | 92 | 120 | 4.0 | 6.0 | 0.00 | 0.00 | 0.00 | 46 | 1013.1 |
| 20260902020941 | 92 | 118 | 3.0 | 5.0 | 0.00 | 0.00 | 0.00 | 46 | 1013.0 |
| 20260902020443 | 93 | 118 | 3.0 | 6.0 | 0.00 | 0.00 | 0.00 | 45 | 1012.9 |
| 20260902015930 | 93 | 120 | 3.0 | 9.0 | 0.00 | 0.00 | 0.00 | 44 | 1013.0 |
| 20260902015505 | 93 | 117 | 5.0 | 9.0 | 0.00 | 0.00 | 0.00 | 44 | 1012.9 |
| 20260902014940 | 93 | 108 | 4.0 | 7.0 | 0.00 | 0.00 | 0.00 | 44 | 1012.8 |
| 20260902014426 | 93 | 112 | 4.0 | 5.0 | 0.00 | 0.00 | 0.00 | 44 | 1012.8 |
| 20260902013933 | 93 | 116 | 3.0 | 6.0 | 0.00 | 0.00 | 0.00 | 44 | 1012.7 |
| 20260902013443 | 94 | 119 | 4.0 | 7.0 | 0.00 | 0.00 | 0.00 | 43 | 1012.6 |
| 20260902012949 | 94 | 122 | 4.0 | 7.0 | 0.00 | 0.00 | 0.00 | 43 | 1012.6 |
| 20260902012456 | 94 | 120 | 3.0 | 6.0 | 0.00 | 0.00 | 0.00 | 43 | 1012.5 |
| 20260902011935 | 94 | 118 | 4.0 | 8.0 | 0.00 | 0.00 | 0.00 | 43 | 1012.6 |
| 20260902011447 | 94 | 110 | 4.0 | 8.0 | 0.00 | 0.00 | 0.00 | 43 | 1012.5 |
| 20260902010929 | 94 | 98 | 4.0 | 7.0 | 0.00 | 0.00 | 0.00 | 43 | 1012.4 |
| 20260902010437 | 94 | 114 | 3.0 | 6.0 | 0.00 | 0.00 | 0.00 | 42 | 1012.4 |
| 20260902010009 | 95 | 110 | 3.0 | 7.0 | 0.00 | 0.00 | 0.00 | 42 | 1012.4 |
| 20260902005454 | 95 | 114 | 4.0 | 7.0 | 0.00 | 0.00 | 0.00 | 42 | 1012.4 |
| 20260902004933 | 95 | 111 | 3.0 | 9.0 | 0.00 | 0.00 | 0.00 | 42 | 1012.4 |
| 20260902004440 | 95 | 106 | 4.0 | 9.0 | 0.00 | 0.00 | 0.00 | 41 | 1012.4 |
| 20260902003951 | 96 | 106 | 4.0 | 10.0 | 0.00 | 0.00 | 0.00 | 40 | 1012.5 |
| 20260902003436 | 96 | 114 | 4.0 | 11.0 | 0.00 | 0.00 | 0.00 | 40 | 1012.5 |
| 20260902002940 | 96 | 131 | 6.0 | 11.0 | 0.00 | 0.00 | 0.00 | 40 | 1012.5 |
| 20260902002431 | 96 | 106 | 4.0 | 12.0 | 0.00 | 0.00 | 0.00 | 39 | 1012.6 |
| 20260902001954 | 96 | 120 | 8.0 | 12.0 | 0.00 | 0.00 | 0.00 | 39 | 1012.5 |
| 20260902001437 | 97 | 97 | 9.0 | 12.0 | 0.00 | 0.00 | 0.00 | 39 | 1012.6 |
| 20260902000941 | 97 | 118 | 5.0 | 12.0 | 0.00 | 0.00 | 0.00 | 39 | 1012.7 |
| 20260902000425 | 97 | 86 | 9.0 | 12.0 | 0.00 | 0.00 | 0.00 | 39 | 1012.7 |
| 20260901235934 | 97 | 113 | 7.0 | 15.0 | 0.00 | 0.00 | 0.00 | 38 | 1012.7 |
| 20260901235505 | 98 | 89 | 9.0 | 15.0 | 0.00 | 0.00 | 0.00 | 38 | 1012.7 |
| 20260901234935 | 98 | 97 | 10.0 | 15.0 | 0.00 | 0.00 | 0.00 | 38 | 1012.7 |
| 20260901234455 | 98 | 102 | 6.0 | 7.0 | 0.00 | 0.00 | 0.00 | 38 | 1012.6 |
| 20260901233941 | 99 | 109 | 5.0 | 11.0 | 0.00 | 0.00 | 0.00 | 36 | 1012.7 |
| 20260901233429 | 99 | 124 | 6.0 | 11.0 | 0.00 | 0.00 | 0.00 | 36 | 1012.7 |
| 20260901232959 | 99 | 102 | 5.0 | 10.0 | 0.00 | 0.00 | 0.00 | 36 | 1012.7 |
| 20260901232427 | 99 | 122 | 2.0 | 10.0 | 0.00 | 0.00 | 0.00 | 36 | 1012.8 |
| 20260901231959 | 99 | 95 | 6.0 | 13.0 | 0.00 | 0.00 | 0.00 | 36 | 1012.8 |
| 20260901231444 | 99 | 101 | 7.0 | 13.0 | 0.00 | 0.00 | 0.00 | 37 | 1012.8 |
| 20260901230927 | 99 | 104 | 8.0 | 11.0 | 0.00 | 0.00 | 0.00 | 36 | 1012.7 |
| 20260901230437 | 99 | 158 | 5.0 | 10.0 | 0.00 | 0.00 | 0.00 | 36 | 1012.8 |
| 20260901225945 | 99 | 111 | 5.0 | 12.0 | 0.00 | 0.00 | 0.00 | 36 | 1012.7 |
| 20260901225450 | 100 | 102 | 7.0 | 12.0 | 0.00 | 0.00 | 0.00 | 35 | 1012.8 |
| 20260901224955 | 100 | 84 | 8.0 | 12.0 | 0.00 | 0.00 | 0.00 | 35 | 1012.8 |
| 20260901224442 | 100 | 120 | 3.0 | 7.0 | 0.00 | 0.00 | 0.00 | 34 | 1012.8 |
| 20260901223929 | 100 | 129 | 3.0 | 13.0 | 0.00 | 0.00 | 0.00 | 34 | 1012.8 |
| 20260901223447 | 100 | 95 | 5.0 | 13.0 | 0.00 | 0.00 | 0.00 | 35 | 1012.8 |
| 20260901222935 | 100 | 68 | 8.0 | 11.0 | 0.00 | 0.00 | 0.00 | 34 | 1012.8 |
| 20260901222439 | 100 | 107 | 3.0 | 15.0 | 0.00 | 0.00 | 0.00 | 35 | 1012.9 |
| 20260901221926 | 100 | 122 | 6.0 | 15.0 | 0.00 | 0.00 | 0.00 | 35 | 1012.9 |
| 20260901221437 | 100 | 108 | 2.0 | 15.0 | 0.00 | 0.00 | 0.00 | 34 | 1012.9 |
| 20260901220946 | 99 | 128 | 3.0 | 15.0 | 0.00 | 0.00 | 0.00 | 36 | 1013.0 |
| 20260901220432 | 100 | 105 | 8.0 | 13.0 | 0.00 | 0.00 | 0.00 | 36 | 1012.9 |
| 20260901215932 | 100 | 118 | 7.0 | 11.0 | 0.00 | 0.00 | 0.00 | 34 | 1013.0 |
| 20260901215505 | 101 | 109 | 5.0 | 11.0 | 0.00 | 0.00 | 0.00 | 35 | 1013.0 |
| 20260901214951 | 101 | 112 | 5.0 | 11.0 | 0.00 | 0.00 | 0.00 | 35 | 1013.1 |
| 20260901214432 | 100 | 122 | 4.0 | 11.0 | 0.00 | 0.00 | 0.00 | 35 | 1013.1 |
| 20260901213941 | 100 | 148 | 4.0 | 11.0 | 0.00 | 0.00 | 0.00 | 35 | 1013.2 |
| 20260901213446 | 99 | 114 | 7.0 | 14.0 | 0.00 | 0.00 | 0.00 | 34 | 1013.2 |
| 20260901212930 | 100 | 110 | 11.0 | 14.0 | 0.00 | 0.00 | 0.00 | 34 | 1013.2 |
| 20260901212452 | 100 | 117 | 4.0 | 12.0 | 0.00 | 0.00 | 0.00 | 35 | 1013.3 |
| 20260901211935 | 99 | 112 | 6.0 | 12.0 | 0.00 | 0.00 | 0.00 | 35 | 1013.3 |
| 20260901211439 | 99 | 119 | 8.0 | 11.0 | 0.00 | 0.00 | 0.00 | 36 | 1013.4 |
| 20260901210945 | 99 | 123 | 1.0 | 6.0 | 0.00 | 0.00 | 0.00 | 37 | 1013.4 |
| 20260901210428 | 98 | 123 | 1.0 | 10.0 | 0.00 | 0.00 | 0.00 | 37 | 1013.5 |
| 20260901205932 | 97 | 129 | 5.0 | 11.0 | 0.00 | 0.00 | 0.00 | 38 | 1013.6 |
| 20260901205451 | 97 | 104 | 7.0 | 14.0 | 0.00 | 0.00 | 0.00 | 38 | 1013.6 |
| 20260901204956 | 98 | 98 | 7.0 | 14.0 | 0.00 | 0.00 | 0.00 | 36 | 1013.6 |
| 20260901204448 | 99 | 97 | 7.0 | 13.0 | 0.00 | 0.00 | 0.00 | 37 | 1013.6 |
| 20260901203954 | 100 | 91 | 7.0 | 13.0 | 0.00 | 0.00 | 0.00 | 36 | 1013.7 |
| 20260901203446 | 100 | 171 | 3.0 | 7.0 | 0.00 | 0.00 | 0.00 | 36 | 1013.8 |
| 20260901202932 | 100 | 233 | 4.0 | 7.0 | 0.00 | 0.00 | 0.00 | 36 | 1013.8 |
| 20260901202434 | 100 | 137 | 5.0 | 11.0 | 0.00 | 0.00 | 0.00 | 37 | 1013.8 |
| 20260901202005 | 100 | 148 | 6.0 | 11.0 | 0.00 | 0.00 | 0.00 | 36 | 1014.0 |
| 20260901201430 | 99 | 144 | 1.0 | 11.0 | 0.00 | 0.00 | 0.00 | 36 | 1013.9 |
| 20260901200935 | 100 | 125 | 3.0 | 11.0 | 0.00 | 0.00 | 0.00 | 36 | 1014.1 |
| 20260901200442 | 100 | 158 | 2.0 | 7.0 | 0.00 | 0.00 | 0.00 | 37 | 1014.1 |
| 20260901195930 | 99 | 153 | 5.0 | 10.0 | 0.00 | 0.00 | 0.00 | 39 | 1014.2 |
| 20260901195436 | 99 | 126 | 5.0 | 10.0 | 0.00 | 0.00 | 0.00 | 39 | 1014.3 |
| 20260901194945 | 99 | 114 | 5.0 | 10.0 | 0.00 | 0.00 | 0.00 | 39 | 1014.2 |